Starlink 3934

operational
NORAD ID: 52675 Int'l Des: 2022-053 Owner: SPXS Country: US Constellation: starlink
LEOCIRCULAR

About Starlink 3934

Description loading...

Live Position

Loading 3D Globe...

Upcoming Passes

Altitude History

Altitude vs Time

uPlot chart will show altitude changes over time

Two-Line Element Set

1 52675U 22053V 25351.82677580 .00000415 00000-0 44167-4 0 9992
2 52675 53.2174 151.6138 0001195 82.3012 277.8116 15.08840812198812
Epoch: Dec 17, 2025 • Age: 17 hours

Current Status

Altitude 552.1 km
Velocity 7.59 km/s
Sub-Earth Point -36.31°S, 83.03°E
Launch Date May 18, 2022
Age 3.5 years
Type internet

Technical Details

Classification Payload
Mass 297.00 kg
Dry Mass 275.00 kg
Total Mass 297.00 kg
Length 0.20 m
Diameter 2.80 m
Span 9.00 m
Shape Box + pan
Manufacturer SPXS
Bus Type Starlink
Phase Status In Orbit
Owner/State SPXS/US

Large Constellations

Loading constellations...